{"data":{"norad_id":65747,"intl_designator":"2025-216P","name":"STARLINK-35214","alt_names":[],"object_type":"PAYLOAD","status":"ACTIVE","operator":null,"country":"US","launch_date":"2025-09-25","launch_site_code":"AFETR","launch_vehicle":null,"mission":null,"orbit_class":"UNKNOWN","rcs_meters":null,"size_class":null,"mass_kg":null,"dimensions":null,"purposes":["comms"],"wikipedia_slug":null,"has_3d_model":false,"image_url":null,"decayed_at":null,"tle_current":{"epoch":"2026-05-24T20:20:20.616576Z","epoch_age_seconds":102405,"freshness":"FRESH","line1":"1 65747U 25216P   26144.84746084  .00025949  00000+0  88492-3 0  9995","line2":"2 65747  53.1604 339.1451 0001008  93.5210 266.5906 15.30209229 38205","mean_motion":15.30209229,"eccentricity":0.0001008,"inclination_deg":53.1604,"raan_deg":339.1451,"arg_perigee_deg":93.521,"mean_anomaly_deg":266.5906,"bstar":0.00088492,"rev_number":3820,"period_min":94.104778138154,"perigee_km":474.49669831641,"apogee_km":475.87832853831,"semimajor_km":6853.3245134274,"source":"CELESTRAK","updated_at":"2026-05-25T13:38:20.932052Z"}}}